Time,TemperatureF,DewpointF,PressureIn,WindDirection,WindDirectionDegrees,WindSpeedMPH,WindSpeedGustMPH,Humidity,HourlyPrecipIn,Conditions,Clouds,dailyrainin,SoftwareType,DateUTC
2013-09-06 00:00:00,58.1,48.0,30.07,North,1,0.0,0.0,69,0.00,CLR,SKC,0.00,WeatherDisplay:10.37,2013-09-05 22:00:00,
2013-09-06 00:10:00,58.6,48.1,30.07,North,1,0.0,0.0,68,0.00,CLR,SKC,0.00,WeatherDisplay:10.37,2013-09-05 22:10:00,
2013-09-06 00:20:00,59.5,47.8,30.07,North,1,0.0,0.0,65,0.00,CLR,SKC,0.00,WeatherDisplay:10.37,2013-09-05 22:20:00,
2013-09-06 00:30:00,59.7,47.5,30.07,North,1,0.0,0.0,64,0.00,CLR,SKC,0.00,WeatherDisplay:10.37,2013-09-05 22:30:00,
2013-09-06 00:40:00,59.7,47.1,30.07,North,1,0.0,0.0,63,0.00,CLR,SKC,0.00,WeatherDisplay:10.37,2013-09-05 22:40:00,
2013-09-06 00:50:00,59.5,46.9,30.07,North,1,0.0,0.0,63,0.00,CLR,SKC,0.00,WeatherDisplay:10.37,2013-09-05 22:50:00,
2013-09-06 01:00:00,59.2,47.0,30.07,North,1,0.0,0.0,64,0.00,CLR,SKC,0.00,WeatherDisplay:10.37,2013-09-05 23:00:00,
2013-09-06 01:10:00,58.8,46.7,30.07,North,1,0.0,0.0,64,0.00,CLR,SKC,0.00,WeatherDisplay:10.37,2013-09-05 23:10:00,
2013-09-06 01:20:00,58.6,46.5,30.07,North,1,0.0,0.0,64,0.00,CLR,SKC,0.00,WeatherDisplay:10.37,2013-09-05 23:20:00,
2013-09-06 01:30:00,58.3,46.6,30.07,North,1,0.0,0.0,65,0.00,CLR,SKC,0.00,WeatherDisplay:10.37,2013-09-05 23:30:00,
2013-09-06 01:40:00,57.9,46.2,30.07,North,1,0.0,0.0,65,0.00,CLR,SKC,0.00,WeatherDisplay:10.37,2013-09-05 23:40:00,
2013-09-06 01:50:00,57.6,46.4,30.07,North,1,0.0,0.0,66,0.00,CLR,SKC,0.00,WeatherDisplay:10.37,2013-09-05 23:50:00,
2013-09-06 02:00:00,57.4,46.5,30.06,North,1,0.0,0.0,67,0.00,CLR,SKC,0.00,WeatherDisplay:10.37,2013-09-06 00:00:00,
2013-09-06 02:10:00,56.8,46.0,30.06,North,1,0.0,0.0,67,0.00,CLR,SKC,0.00,WeatherDisplay:10.37,2013-09-06 00:10:00,
2013-09-06 02:20:00,56.4,45.9,30.06,North,1,0.0,0.0,68,0.00,CLR,SKC,0.00,WeatherDisplay:10.37,2013-09-06 00:20:00,
2013-09-06 02:30:00,56.1,45.7,30.06,North,1,0.0,0.0,68,0.00,CLR,SKC,0.00,WeatherDisplay:10.37,2013-09-06 00:30:00,
2013-09-06 02:40:00,55.9,45.9,30.06,North,1,0.0,0.0,69,0.00,CLR,SKC,0.00,WeatherDisplay:10.37,2013-09-06 00:40:00,
2013-09-06 02:50:00,55.3,45.3,30.06,North,1,0.0,0.0,69,0.00,CLR,SKC,0.00,WeatherDisplay:10.37,2013-09-06 00:50:00,
2013-09-06 03:00:00,55.0,45.4,30.06,North,1,0.0,0.0,70,0.00,CLR,SKC,0.00,WeatherDisplay:10.37,2013-09-06 01:00:00,
2013-09-06 03:10:00,55.0,45.4,30.06,North,1,0.0,0.0,70,0.00,CLR,SKC,0.00,WeatherDisplay:10.37,2013-09-06 01:10:00,
2013-09-06 03:20:00,54.7,45.5,30.06,North,1,0.0,0.0,71,0.00,CLR,SKC,0.00,WeatherDisplay:10.37,2013-09-06 01:20:00,
2013-09-06 03:30:00,54.3,45.1,30.05,North,1,0.0,0.0,71,0.00,CLR,SKC,0.00,WeatherDisplay:10.37,2013-09-06 01:30:00,
2013-09-06 03:40:00,54.1,44.9,30.05,North,1,0.0,0.0,71,0.00,CLR,SKC,0.00,WeatherDisplay:10.37,2013-09-06 01:40:00,
2013-09-06 03:50:00,54.0,45.1,30.05,North,1,0.0,0.0,72,0.00,CLR,SKC,0.00,WeatherDisplay:10.37,2013-09-06 01:50:00,
2013-09-06 04:00:00,54.0,45.1,30.05,North,1,0.0,0.0,72,0.00,CLR,SKC,0.00,WeatherDisplay:10.37,2013-09-06 02:00:00,
2013-09-06 04:10:00,53.8,45.0,30.05,North,1,0.0,0.0,72,0.00,CLR,SKC,0.00,WeatherDisplay:10.37,2013-09-06 02:10:00,
2013-09-06 04:20:00,53.8,45.0,30.05,North,1,0.0,0.0,72,0.00,CLR,SKC,0.00,WeatherDisplay:10.37,2013-09-06 02:20:00,
2013-09-06 04:50:00,53.8,45.0,30.05,North,1,0.0,0.0,72,0.00,CLR,SKC,0.00,WeatherDisplay:10.37,2013-09-06 02:50:00,
2013-09-06 05:00:00,53.4,44.6,30.05,North,1,0.0,0.0,72,0.00,CLR,SKC,0.00,WeatherDisplay:10.37,2013-09-06 03:00:00,
2013-09-06 05:10:00,52.7,44.3,30.05,North,1,0.0,0.0,73,0.00,CLR,SKC,0.00,WeatherDisplay:10.37,2013-09-06 03:10:00,
2013-09-06 05:20:00,52.2,44.1,30.06,North,1,0.0,0.0,74,0.00,CLR,SKC,0.00,WeatherDisplay:10.37,2013-09-06 03:20:00,
2013-09-06 05:30:00,51.6,44.0,30.05,North,1,0.0,0.0,75,0.00,CLR,SKC,0.00,WeatherDisplay:10.37,2013-09-06 03:30:00,
2013-09-06 05:40:00,50.9,43.6,30.05,North,1,0.0,0.0,76,0.00,CLR,SKC,0.00,WeatherDisplay:10.37,2013-09-06 03:40:00,
2013-09-06 05:50:00,50.8,43.8,30.06,North,1,0.0,0.0,77,0.00,CLR,SKC,0.00,WeatherDisplay:10.37,2013-09-06 03:50:00,
2013-09-06 06:00:00,50.5,43.9,30.05,North,1,0.0,0.0,78,0.00,CLR,SKC,0.00,WeatherDisplay:10.37,2013-09-06 04:00:00,
2013-09-06 06:10:00,50.5,43.9,30.06,North,1,0.0,0.0,78,0.00,CLR,SKC,0.00,WeatherDisplay:10.37,2013-09-06 04:10:00,
2013-09-06 06:20:00,50.5,43.9,30.06,North,1,0.0,0.0,78,0.00,CLR,SKC,0.00,WeatherDisplay:10.37,2013-09-06 04:20:00,
2013-09-06 06:30:00,50.4,44.1,30.06,North,1,0.0,0.0,79,0.00,CLR,SKC,0.00,WeatherDisplay:10.37,2013-09-06 04:30:00,
2013-09-06 06:40:00,50.7,44.4,30.06,North,1,0.0,0.0,79,0.00,CLR,SKC,0.00,WeatherDisplay:10.37,2013-09-06 04:40:00,
2013-09-06 06:50:00,51.1,44.8,30.06,North,1,0.0,0.0,79,0.00,CLR,SKC,0.00,WeatherDisplay:10.37,2013-09-06 04:50:00,
2013-09-06 07:00:00,51.4,45.1,30.06,North,1,0.0,0.0,79,0.00,CLR,SKC,0.00,WeatherDisplay:10.37,2013-09-06 05:00:00,
2013-09-06 07:10:00,52.0,45.3,30.06,North,1,0.0,0.0,78,0.00,CLR,SKC,0.00,WeatherDisplay:10.37,2013-09-06 05:10:00,
2013-09-06 07:20:00,52.8,46.2,30.06,North,1,0.0,0.0,78,0.00,CLR,SKC,0.00,WeatherDisplay:10.37,2013-09-06 05:20:00,
2013-09-06 07:30:00,54.2,46.8,30.07,North,1,0.0,0.0,76,0.00,CLR,SKC,0.00,WeatherDisplay:10.37,2013-09-06 05:30:00,
2013-09-06 07:40:00,55.9,47.4,30.07,North,1,0.0,0.0,73,0.00,CLR,SKC,0.00,WeatherDisplay:10.37,2013-09-06 05:40:00,
2013-09-06 07:50:00,57.0,47.7,30.06,North,1,0.0,0.0,71,0.00,CLR,SKC,0.00,WeatherDisplay:10.37,2013-09-06 05:50:00,
2013-09-06 08:00:00,57.7,48.0,30.06,North,1,0.0,0.0,70,0.00,CLR,SKC,0.00,WeatherDisplay:10.37,2013-09-06 06:00:00,
2013-09-06 08:10:00,58.6,48.1,30.07,North,1,0.0,0.0,68,0.00,CLR,SKC,0.00,WeatherDisplay:10.37,2013-09-06 06:10:00,
2013-09-06 08:20:00,59.2,48.2,30.07,North,1,0.0,0.0,67,0.00,CLR,SKC,0.00,WeatherDisplay:10.37,2013-09-06 06:20:00,
2013-09-06 08:30:00,59.9,48.9,30.07,North,1,0.0,0.0,67,0.00,CLR,SKC,0.00,WeatherDisplay:10.37,2013-09-06 06:30:00,
2013-09-06 08:40:00,61.0,49.1,30.07,North,1,0.0,0.0,65,0.00,CLR,SKC,0.00,WeatherDisplay:10.37,2013-09-06 06:40:00,
2013-09-06 08:50:00,61.7,49.4,30.07,North,1,0.0,0.0,64,0.00,CLR,SKC,0.00,WeatherDisplay:10.37,2013-09-06 06:50:00,
2013-09-06 09:00:00,62.4,49.7,30.08,North,1,0.0,0.0,63,0.00,CLR,SKC,0.00,WeatherDisplay:10.37,2013-09-06 07:00:00,
2013-09-06 09:10:00,63.1,49.9,30.08,North,1,0.0,0.0,62,0.00,CLR,SKC,0.00,WeatherDisplay:10.37,2013-09-06 07:10:00,
2013-09-06 09:20:00,63.6,49.9,30.08,North,1,0.0,0.0,61,0.00,CLR,SKC,0.00,WeatherDisplay:10.37,2013-09-06 07:20:00,
2013-09-06 09:30:00,64.0,49.9,30.08,North,1,0.0,0.0,60,0.00,CLR,SKC,0.00,WeatherDisplay:10.37,2013-09-06 07:30:00,
2013-09-06 09:40:00,64.8,50.1,30.08,North,1,0.0,0.0,59,0.00,CLR,SKC,0.00,WeatherDisplay:10.37,2013-09-06 07:40:00,
2013-09-06 09:50:00,65.9,51.2,30.08,North,1,0.0,0.0,59,0.00,CLR,SKC,0.00,WeatherDisplay:10.37,2013-09-06 07:50:00,
2013-09-06 10:00:00,66.6,50.4,30.07,North,1,0.0,0.0,56,0.00,CLR,SKC,0.00,WeatherDisplay:10.37,2013-09-06 08:00:00,
2013-09-06 10:10:00,67.3,50.6,30.07,North,1,0.0,0.0,55,0.00,CLR,SKC,0.00,WeatherDisplay:10.37,2013-09-06 08:10:00,
2013-09-06 10:20:00,67.9,50.1,30.07,North,1,0.0,0.0,53,0.00,CLR,SKC,0.00,WeatherDisplay:10.37,2013-09-06 08:20:00,
2013-09-06 10:30:00,68.5,50.7,30.07,North,1,0.0,0.0,53,0.00,CLR,SKC,0.00,WeatherDisplay:10.37,2013-09-06 08:30:00,
2013-09-06 10:40:00,69.6,50.2,30.07,North,1,0.0,0.0,50,0.00,CLR,SKC,0.00,WeatherDisplay:10.37,2013-09-06 08:40:00,
2013-09-06 10:50:00,69.7,50.3,30.06,North,1,0.0,0.0,50,0.00,CLR,SKC,0.00,WeatherDisplay:10.37,2013-09-06 08:50:00,
2013-09-06 11:00:00,70.2,49.5,30.07,North,1,0.0,0.0,48,0.00,CLR,SKC,0.00,WeatherDisplay:10.37,2013-09-06 09:00:00,
2013-09-06 11:10:00,70.7,49.5,30.07,North,1,0.0,0.0,47,0.00,CLR,SKC,0.00,WeatherDisplay:10.37,2013-09-06 09:10:00,
2013-09-06 11:20:00,70.9,49.6,30.07,North,1,0.0,0.0,47,0.00,CLR,SKC,0.00,WeatherDisplay:10.37,2013-09-06 09:20:00,
2013-09-06 11:30:00,71.2,49.4,30.07,North,1,0.0,0.0,46,0.00,CLR,SKC,0.00,WeatherDisplay:10.37,2013-09-06 09:30:00,
2013-09-06 11:40:00,71.6,50.3,30.07,North,1,0.0,0.0,47,0.00,CLR,SKC,0.00,WeatherDisplay:10.37,2013-09-06 09:40:00,
2013-09-06 11:50:00,71.9,49.4,30.07,North,1,0.0,0.0,45,0.00,CLR,SKC,0.00,WeatherDisplay:10.37,2013-09-06 09:50:00,
2013-09-06 12:00:00,72.3,49.8,30.06,North,1,0.0,0.0,45,0.00,CLR,SKC,0.00,WeatherDisplay:10.37,2013-09-06 10:00:00,
2013-09-06 12:10:00,72.1,50.2,30.06,North,1,0.0,0.0,46,0.00,CLR,SKC,0.00,WeatherDisplay:10.37,2013-09-06 10:10:00,
2013-09-06 12:20:00,72.5,50.0,30.05,North,1,0.0,0.0,45,0.00,CLR,SKC,0.00,WeatherDisplay:10.37,2013-09-06 10:20:00,
2013-09-06 12:30:00,72.9,50.3,30.05,North,1,0.0,0.0,45,0.00,CLR,SKC,0.00,WeatherDisplay:10.37,2013-09-06 10:30:00,
2013-09-06 12:40:00,72.7,50.1,30.06,North,1,0.0,0.0,45,0.00,CLR,SKC,0.00,WeatherDisplay:10.37,2013-09-06 10:40:00,
2013-09-06 12:50:00,73.0,50.4,30.05,North,1,0.0,0.0,45,0.00,CLR,SKC,0.00,WeatherDisplay:10.37,2013-09-06 10:50:00,
2013-09-06 13:00:00,73.0,49.8,30.05,North,1,0.0,0.0,44,0.00,CLR,SKC,0.00,WeatherDisplay:10.37,2013-09-06 11:00:00,
2013-09-06 13:10:00,72.5,49.9,30.05,North,1,0.0,0.0,45,0.00,CLR,SKC,0.00,WeatherDisplay:10.37,2013-09-06 11:10:00,
2013-09-06 13:20:00,72.1,49.0,30.05,North,1,0.0,0.0,44,0.00,CLR,SKC,0.00,WeatherDisplay:10.37,2013-09-06 11:20:00,
2013-09-06 13:30:00,72.3,49.8,30.04,North,1,0.0,0.0,45,0.00,CLR,SKC,0.00,WeatherDisplay:10.37,2013-09-06 11:30:00,
2013-09-06 13:40:00,72.5,49.9,30.03,North,1,0.0,0.0,45,0.00,CLR,SKC,0.00,WeatherDisplay:10.37,2013-09-06 11:40:00,
2013-09-06 13:50:00,72.6,50.0,30.03,North,1,0.0,0.0,45,0.00,CLR,SKC,0.00,WeatherDisplay:10.37,2013-09-06 11:50:00,
2013-09-06 14:00:00,73.0,50.4,30.03,North,1,0.0,0.0,45,0.00,CLR,SKC,0.00,WeatherDisplay:10.37,2013-09-06 12:00:00,
2013-09-06 14:10:00,73.4,51.4,30.03,North,1,0.0,0.0,46,0.00,CLR,SKC,0.00,WeatherDisplay:10.37,2013-09-06 12:10:00,
2013-09-06 14:20:00,74.5,50.5,30.03,North,1,0.0,0.0,43,0.00,CLR,SKC,0.00,WeatherDisplay:10.37,2013-09-06 12:20:00,
2013-09-06 14:30:00,74.2,50.9,30.03,North,1,0.0,0.0,44,0.00,CLR,SKC,0.00,WeatherDisplay:10.37,2013-09-06 12:30:00,
2013-09-06 14:40:00,74.1,50.8,30.03,North,1,0.0,0.0,44,0.00,CLR,SKC,0.00,WeatherDisplay:10.37,2013-09-06 12:40:00,
2013-09-06 14:50:00,73.9,51.3,30.03,North,1,0.0,0.0,45,0.00,CLR,SKC,0.00,WeatherDisplay:10.37,2013-09-06 12:50:00,
2013-09-06 15:00:00,74.3,51.0,30.02,North,1,0.0,0.0,44,0.00,CLR,SKC,0.00,WeatherDisplay:10.37,2013-09-06 13:00:00,
2013-09-06 15:10:00,74.9,50.9,30.02,North,1,0.0,0.0,43,0.00,CLR,SKC,0.00,WeatherDisplay:10.37,2013-09-06 13:10:00,
2013-09-06 15:20:00,75.2,51.2,30.02,North,1,0.0,0.0,43,0.00,CLR,SKC,0.00,WeatherDisplay:10.37,2013-09-06 13:20:00,
2013-09-06 15:30:00,75.5,50.8,30.02,North,1,0.0,0.0,42,0.00,CLR,SKC,0.00,WeatherDisplay:10.37,2013-09-06 13:30:00,
2013-09-06 15:40:00,75.5,50.8,30.02,North,1,0.0,0.0,42,0.00,CLR,SKC,0.00,WeatherDisplay:10.37,2013-09-06 13:40:00,
2013-09-06 15:50:00,75.4,50.7,30.02,North,1,0.0,0.0,42,0.00,CLR,SKC,0.00,WeatherDisplay:10.37,2013-09-06 13:50:00,
2013-09-06 16:00:00,75.7,51.0,30.02,North,1,0.0,0.0,42,0.00,CLR,SKC,0.00,WeatherDisplay:10.37,2013-09-06 14:00:00,
2013-09-06 16:10:00,75.8,51.7,30.02,North,1,0.0,0.0,43,0.00,CLR,SKC,0.00,WeatherDisplay:10.37,2013-09-06 14:10:00,
2013-09-06 16:20:00,76.6,51.8,30.01,North,1,0.0,0.0,42,0.00,CLR,SKC,0.00,WeatherDisplay:10.37,2013-09-06 14:20:00,
2013-09-06 16:30:00,76.0,50.6,30.01,North,1,0.0,0.0,41,0.00,CLR,SKC,0.00,WeatherDisplay:10.37,2013-09-06 14:30:00,
2013-09-06 16:40:00,75.7,51.0,30.01,North,1,0.0,0.0,42,0.00,CLR,SKC,0.00,WeatherDisplay:10.37,2013-09-06 14:40:00,
2013-09-06 16:50:00,75.2,50.5,30.01,North,1,0.0,0.0,42,0.00,CLR,SKC,0.00,WeatherDisplay:10.37,2013-09-06 14:50:00,
2013-09-06 17:00:00,75.0,50.4,30.01,North,1,0.0,0.0,42,0.00,CLR,SKC,0.00,WeatherDisplay:10.37,2013-09-06 15:00:00,
2013-09-06 17:10:00,74.8,50.2,30.01,North,1,0.0,0.0,42,0.00,CLR,SKC,0.00,WeatherDisplay:10.37,2013-09-06 15:10:00,
2013-09-06 17:20:00,74.5,50.5,30.01,North,1,0.0,0.0,43,0.00,CLR,SKC,0.00,WeatherDisplay:10.37,2013-09-06 15:20:00,
2013-09-06 17:30:00,73.7,49.8,30.01,North,1,0.0,0.0,43,0.00,CLR,SKC,0.00,WeatherDisplay:10.37,2013-09-06 15:30:00,
2013-09-06 17:40:00,72.6,49.4,30.01,North,1,0.0,0.0,44,0.00,CLR,SKC,0.00,WeatherDisplay:10.37,2013-09-06 15:40:00,
2013-09-06 17:50:00,72.1,49.6,30.01,North,1,0.0,0.0,45,0.00,CLR,SKC,0.00,WeatherDisplay:10.37,2013-09-06 15:50:00,
2013-09-06 18:00:00,71.8,49.9,30.01,North,1,0.0,0.0,46,0.00,CLR,SKC,0.00,WeatherDisplay:10.37,2013-09-06 16:00:00,
2013-09-06 18:10:00,71.2,50.0,30.01,North,1,0.0,0.0,47,0.00,CLR,SKC,0.00,WeatherDisplay:10.37,2013-09-06 16:10:00,
2013-09-06 18:20:00,70.8,49.5,30.01,North,1,0.0,0.0,47,0.00,CLR,SKC,0.00,WeatherDisplay:10.37,2013-09-06 16:20:00,
2013-09-06 18:30:00,70.2,49.5,30.00,North,1,0.0,0.0,48,0.00,CLR,SKC,0.00,WeatherDisplay:10.37,2013-09-06 16:30:00,
2013-09-06 18:40:00,69.4,49.4,30.00,North,1,0.0,0.0,49,0.00,CLR,SKC,0.00,WeatherDisplay:10.37,2013-09-06 16:40:00,
2013-09-06 18:50:00,68.6,49.7,30.01,North,1,0.0,0.0,51,0.00,CLR,SKC,0.00,WeatherDisplay:10.37,2013-09-06 16:50:00,
2013-09-06 19:00:00,67.3,50.6,30.01,North,1,0.0,0.0,55,0.00,CLR,SKC,0.00,WeatherDisplay:10.37,2013-09-06 17:00:00,
2013-09-06 19:10:00,65.8,50.6,30.01,North,1,0.0,0.0,58,0.00,CLR,SKC,0.00,WeatherDisplay:10.37,2013-09-06 17:10:00,
2013-09-06 19:20:00,64.6,50.8,30.02,North,1,0.0,0.0,61,0.00,CLR,SKC,0.00,WeatherDisplay:10.37,2013-09-06 17:20:00,
2013-09-06 19:30:00,63.3,50.9,30.01,North,1,0.0,0.0,64,0.00,CLR,SKC,0.00,WeatherDisplay:10.37,2013-09-06 17:30:00,
2013-09-06 19:40:00,62.3,50.8,30.02,North,1,0.0,0.0,66,0.00,CLR,SKC,0.00,WeatherDisplay:10.37,2013-09-06 17:40:00,
2013-09-06 19:50:00,61.2,50.1,30.02,North,1,0.0,0.0,67,0.00,CLR,SKC,0.00,WeatherDisplay:10.37,2013-09-06 17:50:00,
2013-09-06 20:00:00,60.4,50.6,30.02,North,1,0.0,0.0,70,0.00,CLR,SKC,0.00,WeatherDisplay:10.37,2013-09-06 18:00:00,
2013-09-06 20:10:00,59.8,50.0,30.02,North,1,0.0,0.0,70,0.00,CLR,SKC,0.00,WeatherDisplay:10.37,2013-09-06 18:10:00,
2013-09-06 20:20:00,59.2,49.8,30.03,North,1,0.0,0.0,71,0.00,CLR,SKC,0.00,WeatherDisplay:10.37,2013-09-06 18:20:00,
2013-09-06 20:30:00,58.3,49.3,30.03,North,1,0.0,0.0,72,0.00,CLR,SKC,0.00,WeatherDisplay:10.37,2013-09-06 18:30:00,
2013-09-06 20:40:00,58.0,49.4,30.03,North,1,0.0,0.0,73,0.00,CLR,SKC,0.00,WeatherDisplay:10.37,2013-09-06 18:40:00,
2013-09-06 20:50:00,57.4,49.2,30.04,North,1,0.0,0.0,74,0.00,CLR,SKC,0.00,WeatherDisplay:10.37,2013-09-06 18:50:00,
2013-09-06 21:00:00,57.6,49.0,30.04,North,1,0.0,0.0,73,0.00,CLR,SKC,0.00,WeatherDisplay:10.37,2013-09-06 19:00:00,
2013-09-06 21:10:00,57.9,48.6,30.05,North,1,0.0,0.0,71,0.00,CLR,SKC,0.00,WeatherDisplay:10.37,2013-09-06 19:10:00,
2013-09-06 21:20:00,57.9,48.2,30.05,North,1,0.0,0.0,70,0.00,CLR,SKC,0.00,WeatherDisplay:10.37,2013-09-06 19:20:00,
2013-09-06 21:30:00,58.3,48.5,30.05,North,1,0.0,0.0,70,0.00,CLR,SKC,0.00,WeatherDisplay:10.37,2013-09-06 19:30:00,
2013-09-06 21:40:00,57.7,47.9,30.05,North,1,0.0,0.0,70,0.00,CLR,SKC,0.00,WeatherDisplay:10.37,2013-09-06 19:40:00,
2013-09-06 21:50:00,57.0,48.1,30.05,North,1,0.0,0.0,72,0.00,CLR,SKC,0.00,WeatherDisplay:10.37,2013-09-06 19:50:00,
2013-09-06 22:00:00,56.5,47.6,30.05,North,1,0.0,0.0,72,0.00,CLR,SKC,0.00,WeatherDisplay:10.37,2013-09-06 20:00:00,
2013-09-06 22:10:00,55.9,47.3,30.06,North,1,0.0,0.0,73,0.00,CLR,SKC,0.00,WeatherDisplay:10.37,2013-09-06 20:10:00,
2013-09-06 22:20:00,55.9,47.8,30.06,North,1,0.0,0.0,74,0.00,CLR,SKC,0.00,WeatherDisplay:10.37,2013-09-06 20:20:00,
2013-09-06 22:30:00,55.9,47.8,30.06,North,1,0.0,0.0,74,0.00,CLR,SKC,0.00,WeatherDisplay:10.37,2013-09-06 20:30:00,
2013-09-06 22:40:00,55.8,47.6,30.06,North,1,0.0,0.0,74,0.00,CLR,SKC,0.00,WeatherDisplay:10.37,2013-09-06 20:40:00,
2013-09-06 22:50:00,55.4,47.2,30.06,North,1,0.0,0.0,74,0.00,CLR,SKC,0.00,WeatherDisplay:10.37,2013-09-06 20:50:00,
2013-09-06 23:00:00,55.0,47.3,30.06,North,1,0.0,0.0,75,0.00,CLR,SKC,0.00,WeatherDisplay:10.37,2013-09-06 21:00:00,
2013-09-06 23:10:00,55.0,47.3,30.06,North,1,0.0,0.0,75,0.00,CLR,SKC,0.00,WeatherDisplay:10.37,2013-09-06 21:10:00,
2013-09-06 23:20:00,54.3,46.6,30.06,North,1,0.0,0.0,75,0.00,CLR,SKC,0.00,WeatherDisplay:10.37,2013-09-06 21:20:00,
2013-09-06 23:30:00,54.6,46.8,30.06,North,1,0.0,0.0,75,0.00,CLR,SKC,0.00,WeatherDisplay:10.37,2013-09-06 21:30:00,
2013-09-06 23:40:00,54.5,46.7,30.07,North,1,0.0,0.0,75,0.00,CLR,SKC,0.00,WeatherDisplay:10.37,2013-09-06 21:40:00,
2013-09-06 23:50:00,54.3,46.6,30.07,North,1,0.0,0.0,75,0.00,CLR,SKC,0.00,WeatherDisplay:10.37,2013-09-06 21:50:00,